User: anonymous   Login
Location: Dover
(39.1580°N, 75.5250°W)
Time: 17:59:01
(UTC-05:00)
Language:

SeaSat 1 - Orbit

View from above orbital plane
View from above orbital plane
View from above satellite
View from above satellite

Ground track
Ground track

The orbit data is extracted from the following two-line orbital elements,

1 10967U 78064A   15026.58864318  .00000170  00000-0  90879-4 0  4940
2 10967 107.9914 277.2011 0002800 297.5307 120.8923 14.43255157920709
Epoch (UTC): 26 January 2015 14:07:38
Eccentricity: 0.0002800
inclination: 107.9914°
perigee height: 746 km
apogee height: 750 km
right ascension of ascending node: 277.2011°
argument of perigee: 297.5307°
revolutions per day: 14.43255157
mean anomaly at epoch: 120.8923°
orbit number at epoch: 92070

The dashed part of the orbit path shows where the satellite is in the earth's shadow,  

DLR